www.pogodaiklimat.ru

ПОГОДА в Longreach Airport

  • Прогноз погоды в Longreach Airport
  • Монитор погоды в Longreach Airport
  • Климат города

АРХИВ ПОГОДЫ в Longreach Airport

Время (UTC), дата Ветер
(напр.,м/с)
 
Видим.   Явления Облачность Т
(С)
Тd
(С)
f
(%)
Тe
(С)
Тes
(С)
Комфортность P
(гПа)
Po
(гПа)
Тmin
(С)
Tmax
(С)
R
(мм)
S
(см)
03 13.01 С 7 н/о н/о +38.7 +18.0 30 +42 +42 опасность
перегрева
1006.3 984.9
05 13.01 С 7 н/о 8/0 2000 м
[]
+39.2 +17.7 29 +42 +45 опасность
перегрева
1004.6 983.2
06 13.01 С 7 н/о н/о +40.6 +17.4 26 +43 +43 опасность
перегрева
1003.7 982.4
08 13.01 С 6 н/о 3/0
[]
+38.7 +17.4 29 +42 +42 опасность
перегрева
1003.5 982.2
09 13.01 С 5 н/о н/о +38.0 +17.4 30 +41 +41 опасность
перегрева
1003.8 982.5
12 13.01 СЗ 5 н/о н/о +34.6 +19.1 40 +40 +40 очень
душно
1005.7 984.3
14 13.01 СЗ 6 н/о н/о +33.7 +19.4 43 +39 +39 очень
душно
1006.2 984.8
15 13.01 СЗ 6 н/о н/о +32.9 +19.9 46 +39 +39 очень
душно
1005.1 983.7
17 13.01 СЗ 5 н/о н/о +31.4 +20.7 53 +38 +38 очень
душно
1005.4 984.0
18 13.01 СЗ 4 н/о н/о +31.0 +20.9 55 +38 +38 очень
душно
1005.5 984.1
20 13.01 З 4 н/о 5/0
[]
+30.3 +21.4 59 +38 +38 очень
душно
1006.8 985.4
21 13.01 СЗ 3 н/о н/о +30.5 +21.8 60 +39 +39 очень
душно
1007.3 985.9
23 13.01 З 6 н/о 4/0
[]
+32.5 +20.8 50 +40 +43 очень
душно
1008.0 986.6
00 14.01 З 4 н/о н/о +32.7 +20.7 49 +40 +40 очень
душно
1008.4 987.0
02 14.01 В 9 н/о 9/9 1000 м
[]
+26.8 +22.9 79 +36 +36 очень
душно
1008.2 986.8
03 14.01 СВ 9 н/о н/о +24.0 +22.7 92 +31 +31 очень
душно
1008.7 987.3
05 14.01 В 2 н/о туман местами 10/0
[]
+23.7 +22.8 95 +31 +38 очень
душно
1008.5 987.1
06 14.01 СЗ 5 н/о н/о +23.6 +23.0 96 +31 +31 очень
душно
1006.2 984.8
08 14.01 С 4 н/о {туман} 5/5 100 м
[]
+24.4 +23.5 95 +33 +33 очень
душно
1005.8 984.4
09 14.01 С 3 н/о н/о +24.5 +23.8 96 +33 +33 очень
душно
1006.9 985.5
11 14.01 ЮВ 2 н/о {туман} 10/0
[]
+24.6 +23.9 96 +34 +34 очень
душно
1008.6 987.2
12 14.01 штиль 0 н/о н/о +24.6 +23.9 96 +34 +34 очень
душно
1008.7 987.3
14 14.01 В 2 н/о 10/10 100 м
[]
+24.6 +23.9 96 +34 +34 очень
душно
1008.2 986.8 +35.5
15 14.01 В 2 н/о н/о +24.5 +23.9 96 +33 +33 очень
душно
1008.1 986.7
17 14.01 ЮВ 3 н/о 10/10 100 м
[]
+24.3 +24.0 98 +33 +33 очень
душно
1007.0 985.6
18 14.01 Ю 2 н/о н/о +24.3 +23.9 98 +33 +33 очень
душно
1006.7 985.3
20 14.01 ЮВ 2 н/о 10/10 200 м
[]
+24.5 +23.9 96 +33 +33 очень
душно
1007.8 986.4
21 14.01 штиль 0 н/о н/о +24.8 +24.1 96 +34 +34 очень
душно
1008.4 987.0
23 14.01 Ю 2 н/о 8/8 300 м
[]
+27.2 +23.7 81 +37 +39 очень
душно
1008.1 986.7
00 15.01 ЮЗ 3 н/о н/о +28.8 +23.8 74 +39 +39 очень
душно
1007.9 986.5
02 15.01 С 3 н/о {туман} 9/9 1000 м
[]
+32.0 +22.2 56 +41 +43 опасность
перегрева
1007.4 986.0 +23.5
03 15.01 В 2 н/о н/о +32.8 +22.4 54 +42 +42 опасность
перегрева
1006.6 985.2
05 15.01 Ю 3 н/о {туман} 10/10 1000 м
[]
+34.7 +22.3 49 +44 +44 опасность
перегрева
1004.5 983.1
06 15.01 ЮВ 3 н/о н/о +33.9 +22.0 50 +43 +43 опасность
перегрева
1003.5 982.2
08 15.01 З 6 н/о в посл. час дождь {туман} 10/10 1000 м
[]
+26.7 +24.3 87 +37 +37 очень
душно
1004.7 983.3
09 15.01 ЮЗ 5 н/о н/о +25.7 +22.3 82 +34 +34 очень
душно
1005.1 983.7
11 15.01 В 3 н/о {туман} 10/0
[]
+26.9 +21.1 71 +34 +34 очень
душно
1005.9 984.5
12 15.01 ЮВ 3 н/о н/о +26.0 +22.5 81 +34 +34 очень
душно
1006.6 985.2
14 15.01 В 1 н/о 10/10 1500 м
[]
+26.0 +23.5 86 +35 +35 очень
душно
1007.1 985.7 +35.5
15 15.01 В 3 н/о н/о +26.0 +22.6 82 +34 +34 очень
душно
1006.5 985.1
17 15.01 В 3 н/о 10/10 1000 м
[]
+25.3 +23.4 89 +34 +34 очень
душно
1006.1 984.7
18 15.01 В 5 н/о н/о +25.2 +23.3 89 +34 +34 очень
душно
1006.0 984.6
20 15.01 В 3 н/о 5/0
[]
+24.4 +22.8 91 +32 +32 очень
душно
1006.9 985.5
21 15.01 В 5 н/о н/о +26.2 +22.7 81 +35 +35 очень
душно
1007.1 985.7
23 15.01 СВ 6 н/о в посл. час дождь {туман} 5/5 600 м
[]
+29.5 +22.8 67 +39 +41 очень
душно
1008.1 986.7
00 16.01 СВ 7 н/о н/о +31.8 +22.3 57 +41 +41 опасность
перегрева
1007.9 986.5
02 16.01 СВ 7 н/о 5/5 1000 м
[]
+34.3 +20.2 44 +41 +44 опасность
перегрева
1007.3 985.9 +24.5
03 16.01 СВ 6 н/о н/о +35.6 +19.6 39 +41 +41 опасность
перегрева
1006.8 985.4
05 16.01 СВ 8 н/о 3/3 1500 м
[]
+37.4 +18.6 33 +41 +43 опасность
перегрева
1005.5 984.1
06 16.01 СВ 8 н/о н/о +36.9 +17.7 32 +40 +40 очень
душно
1004.8 983.4
08 16.01 В 8 н/о ясно +36.6 +16.0 30 +39 +39 очень
душно
1005.7 984.3
09 16.01 СВ 6 н/о н/о +34.6 +17.9 37 +38 +38 очень
душно
1006.5 985.1
11 16.01 СВ 3 н/о ясно +30.9 +20.8 55 +38 +38 очень
душно
1007.9 986.5
12 16.01 С 3 н/о н/о +29.0 +22.1 66 +37 +37 очень
душно
1008.4 987.0
14 16.01 С 3 н/о н/о +27.6 +22.1 72 +36 +36 очень
душно
1008.7 987.3 +38.3
15 16.01 С 3 н/о н/о +26.7 +22.3 77 +35 +35 очень
душно
1008.7 987.3

 

Местоположение метеостанции Longreach Airport (Квинсленд, Австралия): широта -23.43 долгота 144.28 высота над уровнем моря 192 м.

В архиве по умолчанию представлена погода в Longreach Airport за последнюю неделю. Архивные данные за месяц целиком и за предыдущие месяцы, начиная с января 2011 года, Вы можете получить, выбрав интересующий диапазон дат из раскрывающегося списка и нажав кнопку "Ввод!".

Внимание! Время в таблицах - всемирное. Для получения местного времени необходимо прибавить поправку, которая в Longreach Airport равна 10 ч.

Ветер - указаны скорость ветра в м/с - средняя за 10 мин, порывы в срок и между сроками (в фигурных скобках) и направление, откуда дует ветер: С - северный, СВ - северо-восточный, В - восточный, ЮВ - юго-восточный, Ю - южный, ЮЗ - юго-западный, З - западный, СЗ - северо-западный.
Видимость - горизонтальная дальность видимости в метрах или километрах. При видимости от 1 до 10 км при отсутствии осадков обычно наблюдается дымка, при ухудшении видимости до 1 км и менее - туман. В сухую погоду видимость может ухудшаться дымом, пылью или мглою.
Явления - указаны атмосферные явления, наблюдавшиеся в срок или в последний час перед сроком; фигурными скобками обозначены явления, наблюдавшиеся между сроками (за 1-3 часа до срока); квадратными скобками обозначены град или гололедные отложения с указанием их диаметра в мм.
Облачность - указаны через наклонную черту общая и нижняя облачность в баллах и высота нижней границы облаков в метрах; квадратными скобками обозначены формы облаков: Ci - перистые, Cs - перисто-слоистые, Cc - перисто-кучевые, Ac - высококучевые, As - высокослоистые, Sc - слоисто-кучевые, Ns - слоисто-дождевые, Cu - кучевые, Cb - кучево-дождевые. Подробнее классификацию облаков см. в Атласе облаков (PDF).
T - Температура воздуха - температура, измеренная на высоте 2 м над землей.
Td - Температура точки росы - температура, при понижении до которой содержащийся в воздухе водяной пар достигнет насыщения.
f - Относительная влажность воздуха - влажноcть воздуха, измеренная на высоте 2 м над землей.
Te - Эффективная температура - температура, которую ощущает одетый по сезону человек в тени. Характеристика душности погоды. При расчете учитывается влияние влажности воздуха и скорости ветра на теплоощущения человека.
Tes - Эффективная температура на солнце - температура, которую ощущает человек, с поправкой на солнечный нагрев. Характеристика знойности погоды. Зависит от высоты солнца над горизонтом, облачности и скорости ветра. Ночью, в пасмурную погоду, а также при ветре 12 м/с и более поправка равна нулю.
P - Атмосферное давление - приведенное к уровню моря атмосферное давление.
Po - Атмосферное давление - измеренное на уровне метеостанции атмосферное давление.
Tmin - Минимальная температура - минимум температуры воздуха на высоте 2 м над землей.
Tmax - Максимальная температура - максимум температуры воздуха на высоте 2 м над землей.
R - Количество осадков - Количество выпавших осадков, мм. При наведении курсора мыши на число - период времени, за который выпало указанное количество осадков.
S - Снежный покров - Высота снежного покрова, см. При наведении курсора мыши на число - состояние снежного покрова и степень покрытия местности в баллах.